Wetbulb
76.40 73.68 74.31 76.61 75.21 76.84 75.94 75.71 77.74 78.55 77.89 79.03 79.20 78.96 79.15 77.49 77.25 77.95 77.49 77.61 77.72 76.10
75.88 75.49 73.31 75.75 77.26 76.97 77.14 76.71 77.76 78.27 78.88 78.80 78.59 78.23 78.88 77.15 77.32 78.46 78.38 77.54 78.21 77.27
73.70 75.15 75.64 73.30 75.61 75.67 78.50 78.16 77.65 78.09 77.96 78.46 78.96 78.75 78.95 77.66 77.70 78.32 77.24 76.96 77.17 77.42
74.29 74.48 74.01 75.31 72.97 77.20 76.45 80.21 79.08 79.50 78.58 77.78 77.70 78.90 78.95 77.74 77.71 77.23 77.43 78.38 78.38 77.37
75.31 74.43 73.95 72.72 76.51 76.45 78.57 77.99 80.71 78.71 79.58 78.12 77.87 78.11 77.90 77.33 75.95 76.43 76.79 77.24 77.33 77.57
74.91 75.01 74.90 74.01 74.50 77.09 76.59 78.08 77.45 79.19 77.81 78.10 77.09 77.37 77.93 77.82 76.91 76.86 77.31 77.11 77.32 77.00
74.72 74.84 74.52 75.73 74.51 76.37 77.62 77.05 77.48 77.56 78.22 78.01 77.40 76.95 77.74 78.03 77.44 77.20 76.98 77.94 77.30 77.78
75.94 75.60 75.23 75.20 75.78 75.23 76.34 77.06 77.75 77.46 78.09 78.15 77.48 76.80 76.76 77.01 77.55 77.29 77.08 77.36 77.84 77.96
75.70 75.62 75.65 75.11 75.80 76.23 76.00 76.91 77.37 77.56 77.63 77.72 77.39 71.07 68.84 74.53 76.20 77.58 76.97 76.52 77.14 78.30
75.87 75.92 75.44 76.23 75.35 76.07 75.80 76.71 76.94 77.43 77.90 77.51 77.75 67.80 66.62 68.69 75.83 76.15 76.94 77.52 77.24 77.35
75.91 75.62 76.14 75.65 75.86 75.32 76.44 76.23 76.79 77.31 77.84 77.90 78.12 67.78 63.78 66.40 74.12 75.65 76.52 77.06 76.90 77.09
75.67 75.76 75.70 75.36 75.35 75.77 76.44 76.74 76.73 77.46 77.85 77.73 78.01 65.62 64.03 64.91 72.94 74.15 74.76 75.37 75.97 77.25
75.93 76.47 75.64 75.91 75.93 76.49 76.91 76.92 77.33 77.26 77.98 74.69 78.06 66.28 63.02 64.97 74.73 74.00 74.10 75.60 76.29 67.75
77.22 76.57 77.26 77.28 77.43 77.20 77.26 77.37 77.12 77.07 77.67 78.47 77.35 77.23 61.02 59.73 75.16 74.92 74.75 74.65 74.90 76.17
MSLP
1014.99 1015.29 1015.61 1015.75 1015.66 1015.90 1016.03 1016.19 1016.51 1017.06 1017.69 1018.19 1018.61 1018.90 1019.23 1019.62 1019.71 1019.58 1019.81 1019.97 1019.99 1020.11
1014.60 1014.77 1015.05 1015.34 1015.49 1015.75 1015.79 1015.99 1016.20 1016.75 1017.37 1017.65 1018.21 1018.57 1018.85 1019.31 1019.41 1019.54 1019.74 1019.91 1020.00 1020.07
1013.93 1014.37 1014.60 1014.95 1015.33 1015.48 1015.57 1015.66 1016.37 1016.63 1016.98 1017.34 1017.71 1018.03 1018.55 1018.89 1019.13 1019.39 1019.67 1019.65 1019.77 1019.87
1012.94 1013.58 1014.23 1014.49 1014.86 1015.08 1015.35 1015.55 1015.81 1016.30 1016.67 1017.09 1017.50 1017.85 1018.27 1018.57 1018.75 1019.01 1019.11 1019.26 1019.32 1019.51
1012.07 1012.83 1013.34 1013.89 1014.05 1014.57 1014.84 1015.21 1015.45 1015.89 1016.35 1016.77 1017.15 1017.57 1017.91 1018.27 1018.37 1018.59 1018.79 1018.90 1019.08 1019.11
1011.13 1011.70 1012.23 1012.97 1013.47 1013.85 1014.35 1014.68 1015.13 1015.49 1015.94 1016.35 1016.73 1017.10 1017.43 1017.79 1018.10 1018.29 1018.39 1018.57 1018.64 1018.75
1009.94 1010.51 1011.22 1011.95 1012.81 1013.17 1013.59 1014.12 1014.57 1015.00 1015.38 1015.83 1016.25 1016.56 1016.87 1017.20 1017.59 1017.80 1017.95 1017.95 1018.13 1018.24
1008.63 1009.56 1010.42 1011.09 1011.73 1012.48 1012.95 1013.36 1013.89 1014.43 1014.78 1015.16 1015.57 1015.93 1016.27 1016.58 1016.86 1017.17 1017.38 1017.55 1017.66 1017.76
1007.89 1008.85 1009.54 1010.31 1010.89 1011.60 1012.09 1012.57 1013.14 1013.59 1014.04 1014.35 1014.71 1015.03 1015.41 1015.84 1016.18 1016.37 1016.73 1016.95 1017.07 1017.17
1006.77 1007.86 1008.67 1009.34 1010.18 1010.64 1011.23 1011.73 1012.17 1012.69 1013.17 1013.57 1013.85 1014.20 1014.56 1015.00 1015.45 1015.73 1015.89 1016.16 1016.45 1016.65
1005.64 1006.63 1007.73 1008.63 1009.17 1009.83 1010.39 1010.91 1011.29 1011.75 1012.23 1012.71 1013.12 1013.57 1013.98 1014.29 1014.78 1015.00 1015.11 1015.31 1015.63 1015.87
1004.32 1005.45 1006.57 1007.43 1008.10 1008.81 1009.58 1010.13 1010.49 1010.84 1011.27 1011.74 1012.28 1012.79 1013.35 1013.93 1014.37 1014.41 1014.48 1014.61 1014.86 1015.09
1003.41 1004.43 1005.27 1006.07 1007.00 1007.91 1008.56 1008.89 1009.45 1009.81 1010.19 1010.71 1011.26 1011.75 1012.30 1013.01 1013.48 1013.67 1013.79 1013.95 1014.10 1014.34
1002.56 1003.37 1004.41 1005.58 1006.38 1007.05 1007.76 1008.34 1008.78 1009.09 1009.43 1009.87 1010.32 1010.72 1011.24 1011.96 1012.56 1012.61 1012.86 1013.03 1013.11 1013.40
Wind_Speed
12 9 8 6 5 3 4 7 11 9 9 7 6 5 5 4 5 4 3 4 2 3
12 11 10 8 5 5 5 2 13 11 8 8 8 7 7 5 5 3 4 5 4 3
17 14 9 10 7 7 6 6 9 11 10 7 7 8 7 6 6 5 6 4 7 5
17 16 14 10 12 9 9 6 6 7 8 9 8 6 6 6 5 9 6 5 4 8
18 18 17 15 12 12 10 10 6 7 6 6 8 7 8 9 7 9 7 6 6 5
19 19 19 18 16 14 13 10 11 8 9 8 9 8 9 9 9 8 9 9 8 7
21 20 19 17 18 15 14 14 13 12 11 11 11 10 10 11 11 10 9 7 8 7
20 19 18 18 17 18 16 14 14 13 13 13 12 11 11 10 11 11 10 9 8 8
19 19 18 18 16 17 17 16 15 15 15 14 12 15 16 14 11 11 11 10 10 8
18 19 19 17 18 17 18 16 16 16 15 15 15 15 17 18 12 11 10 10 10 10
18 20 18 18 18 18 16 17 16 16 16 15 14 15 14 17 14 11 11 11 11 10
20 19 20 20 19 17 16 16 16 15 16 16 14 17 17 12 10 12 12 11 10 9
19 19 21 20 19 16 16 17 14 16 16 17 16 16 19 16 11 11 10 11 12 13
18 19 17 16 15 16 16 15 15 15 14 15 16 16 19 20 14 12 10 11 10 11
Wind_Direction
196 208 214 241 199 225 205 183 173 170 170 180 186 194 160 191 225 201 217 290 286 320
206 206 204 217 212 198 246 286 155 169 173 182 175 206 171 222 206 235 214 192 223 242
201 199 208 204 224 207 227 226 167 174 179 181 195 189 184 217 192 205 209 220 192 210
192 201 205 208 200 201 219 242 174 176 174 180 197 197 196 224 226 209 200 241 250 194
196 197 199 210 201 208 196 200 201 183 184 193 193 201 203 210 241 195 214 225 225 252
199 198 201 201 212 196 202 204 204 190 195 196 204 204 206 202 217 244 208 215 219 221
199 201 202 198 201 208 196 200 206 209 199 203 206 212 215 201 210 219 239 226 226 227
200 203 199 203 198 203 206 203 203 207 210 204 207 211 213 214 210 216 221 235 231 234
197 196 203 204 202 199 205 203 203 205 210 206 209 208 203 204 217 211 215 224 239 248
189 198 202 200 202 203 202 204 205 206 208 212 212 208 204 202 211 217 220 216 223 232
190 194 197 202 204 206 203 206 206 207 208 211 214 204 203 203 209 215 219 218 221 224
192 190 192 199 203 202 203 206 211 209 208 210 215 199 202 183 208 219 224 226 234 236
191 190 194 197 199 202 204 208 208 213 212 210 212 198 199 190 215 216 223 228 231 225
190 197 191 194 197 199 206 209 211 217 217 215 212 212 195 195 211 220 220 226 225 225